Location: Zagreb
(45.8000°N, 16.0000°E)
Time: 08:27:47
(UTC+02:00)

Courier 1B Rocket - Pass Details

Date: 16 August 2022
Orbit: 920 x 1202 km, 28.2° (Epoch: 25 September)

Event Time Altitude Azimuth Distance (km) Brightness Sun altitude
Rises 17:05:52 0° 235° (SW) 3,551 8.9 29.5°
Reaches altitude 10° 17:09:38 10° 213° (SSW) 2,601 8.0 28.9°
Maximum altitude 17:13:01 15° 180° (S) 2,259 7.2 28.3°
Drops below altitude 10° 17:16:25 10° 146° (SSE) 2,624 7.1 27.7°
Sets 17:20:15 0° 125° (SE) 3,600 7.6 27.1°
